This is the latest recevied weather packets stored in our database for station/object KC1HBM. If no packets are shown the sender has not sent any weather packets the latest 10 day(s).
| Time | Temp. | Humidity | Pressure | Rain* | Wind** | Luminosity | Snow |
|---|---|---|---|---|---|---|---|
| 1777997162 | 17.22° C | 70% | 1005.7 hPa | 0 mm | - | 609 W/m² | - |
| 1777996859 | 17.22° C | 72% | 1005.7 hPa | 0 mm | - | 636 W/m² | - |
| 1777996555 | 17.22° C | 71% | 1005.8 hPa | 0 mm | - | 636 W/m² | - |
| 1777996251 | 17.22° C | 71% | 1006 hPa | 0 mm | - | 649 W/m² | - |
| 1777995947 | 17.22° C | 69% | 1005.8 hPa | 0 mm | - | 648 W/m² | - |
| 1777995643 | 17.78° C | 71% | 1005.9 hPa | 0 mm | - | 635 W/m² | - |
| 1777995341 | 17.78° C | 69% | 1006.1 hPa | 0 mm | - | 622 W/m² | - |
| 1777995038 | 18.33° C | 69% | 1006 hPa | 0 mm | - | 665 W/m² | - |
| 1777994735 | 18.33° C | 70% | 1006.1 hPa | 0 mm | - | 662 W/m² | - |
| 1777994431 | 18.89° C | 68% | 1006.3 hPa | 0 mm | - | 623 W/m² | - |
| 1777994125 | 18.33° C | 69% | 1006 hPa | 0 mm | - | 649 W/m² | - |
| 1777993823 | 17.78° C | 69% | 1006.2 hPa | 0 mm | - | 650 W/m² | - |
| 1777993519 | 17.22° C | 72% | 1006.1 hPa | 0 mm | - | 655 W/m² | - |
| 1777993215 | 16.67° C | 73% | 1006.4 hPa | 0 mm | - | 633 W/m² | - |
| 1777992912 | 15.56° C | 75% | 1006.4 hPa | 0 mm | - | 633 W/m² | - |
| 1777992610 | 14.44° C | 79% | 1006.4 hPa | 0 mm | - | 305 W/m² | - |
| 1777992308 | 13.89° C | 80% | 1006.6 hPa | 0 mm | - | 167 W/m² | - |
| 1777992005 | 13.33° C | 81% | 1006.6 hPa | 0 mm | - | 172 W/m² | - |
| 1777991703 | 12.78° C | 82% | 1006.5 hPa | 0 mm | - | 147 W/m² | - |
| 1777991399 | 13.33° C | 81% | 1006.3 hPa | 0 mm | - | 101 W/m² | - |
| 1777991097 | 13.89° C | 80% | 1006.1 hPa | 0 mm | - | 95 W/m² | - |
| 1777990794 | 15° C | 78% | 1005.8 hPa | 0 mm | - | 69 W/m² | - |
| 1777990491 | 15° C | 77% | 1005.8 hPa | 0 mm | - | 118 W/m² | - |
| 1777989884 | 16.67° C | 72% | 1006.1 hPa | 0 mm | - | 672 W/m² | - |
| 1777989581 | 16.67° C | 71% | 1006.3 hPa | 0 mm | - | 521 W/m² | - |
* Rain latest hour (hover to see other rain measurements)
** Current wind speed in m/s (hover to see current wind gust speed)